Погода Столб Остров

Погода Столб Остров : погода сейчас, прогноз погоды и архив. Всё, что Вы хотите узнать о погоде Столб Остров!

Поиск расширенной информации на нашем сайте:

Другие новости

Новости СМИ2

Главная страница сайта

Новости сайта

02.10.2013

Напоминаем, что на нашем новом сайте вы можете получить высокодетализированные прогнозы погоды по пунктам России, СНГ и мира (включающие важные для авиации метеовеличины, такие как направление и скорость ветра, видимость, явления погоды, количество и форма облачности, нижняя и верхняя граница облачности), а также ознакомиться с разнообразными материалами по авиационной метеорологии и подборкой полезных ссылок на эту тему.

Сайт Метеоцентр.Азия посвящён разработке технологий оптимизации авиаметеорологического обслуживания, включая проектирование и перспективное создание нескольких автоматизированных авиаметеорологических систем:
- система выпуска высокодетальных прогностических карт явлений погоды для нижнего воздушного пространства по России и ближнему зарубежью;
- система верификации прогнозов TAF (выпускаемых синоптиками официальных АМСГ РФ и ближнего зарубежья) и AUTOTAF (выпускаемых сайтом Метеоцентр.Азия) - выявление ошибок, онлайн-сопоставление с фактической погодой METAR, автоматическое внесение коррективов в прогнозы при резком отклонении фактической погоды от прогноза, подсчёт оправдываемости прогнозов по элементам и в целом;
- система обработки, анализа и отображения авиаметеорологической информации для применения провайдерами метеорологической информации.

Рекомендуем: Описание постельное белье купить в иваново оптом у нас.

Погода Столб Остров - сегодня

Время (UTC), дата Ветер
(°,м/с) 
Видим.   Явления Облачность Т
(°С)
Тd
(°С)
f(%) Тe
(°С)
Pmin
(гПа)
dP
(гПа)
Po
(мм)
O2
(г/м3)
Тmin Tmax R s Состояние
почвы
12 18.02.17 160 (Ю) 6{12}  20000 м  позёмок{снег}  10/0 верхняя 
[Cs]
-27.6 -28.7 90 -36  1007.7  0.1  754  340    -26  0.4     
15 18.02.17 160 (Ю) 7{10}  20000 м  позёмок  ясно 
-29 -30.1 90 -39  1007.6  -0.2  754  342           
18 18.02.17 170 (Ю) 7-10{12}  20000 м  позёмок  ясно 
-28.6 -29.8 89 -38  1007.1  -0.5  753  341           
21 18.02.17 180 (Ю) 10-13{14}  4000 м  метель  ясно 
-28 -29.2 89 -40  1006.4  -0.6  753  340           
00 19.02.17 160 (Ю) 11-15{18}  4000 м  метель  10/0 верхняя 
[Cs]
-27.2 -28.4 90 -39  1007.2  0.8  753  339  -29.3      22  неравномерный
сухой снег
100% 
03 19.02.17 140 (ЮВ) 9-12{15}  10 км  метель  10/0 верхняя 
[Cs]
-26.8 -27.5 94 -37  1007.2  753  338           
06 19.02.17 170 (Ю) 12-15{17}  4000 м  метель  10/0 верхняя 
[Cs]
-25.2 -26.3 91 -37  1006.7  -0.5  753  336           
09 19.02.17 170 (Ю) 11-15{15}  4000 м  метель  10/0 средняя 
[Ac As]
-25 -25.6 95 -36  1007.4  0.7  754  336           
12 19.02.17 150 (ЮВ) 9-12{15}  10 км  метель  10/0 средняя 
[Ac As]
-25.2 -25.8 95 -36  1008  0.6  754  336    -25       
15 19.02.17 170 (Ю) 10-13{14}  4000 м  метель  10/0 средняя 
[Ac As]
-23.2 -23.8 95 -34  1008.5  0.5  754  334           
18 19.02.17 170 (Ю) 9-12{13}  10 км  метель  10/0 средняя 
[Ac As]
-24.3 -24.9 95 -34  1009.7  1.2  755  336           
21 19.02.17 160 (Ю) 9-11{13}  10 км  метель  10/0 средняя 
[Ac As]
-24.8 -26.2 88 -35  1011.1  1.4  756  337           
00 20.02.17 150 (ЮВ) 4{11}  20000 м    10/0 средняя, верхняя 
[Ac trans|Cs]
-25 -26.2 90 -31  1013.1  758  338  -25.3      22  неравномерный
сухой снег
100% 
03 20.02.17 150 (ЮВ) 20000 м    10/0 верхняя 
[Cs]
-24.4 -25.6 90 -32  1013.9  0.8  758  337           
06 20.02.17 170 (Ю) 7-10{12}  20000 м  позёмок  10/0 верхняя 
[Cs]
-24.3 -25.5 90 -33  1014.6  0.7  759  337           
09 20.02.17 170 (Ю) 3{10}  20000 м    4/0 верхняя 
[Ci fib]
-27.7 -29.5 84 -33  1017.7  761  343           
12 20.02.17 150 (ЮВ) 20000 м    3/0 верхняя 
[Ci fib]
-27.8 -29.7 84 -34  1019.3  1.6  762  344    -23.8       
15 20.02.17 150 (ЮВ) 20000 м    ясно 
-28 -29.8 85 -36  1020  0.7  763  344           
18 20.02.17 170 (Ю) 20000 м    ясно 
-28 -29.8 85 -36  1020.8  0.8  764  345           
21 20.02.17 тихо ()   20000 м    ясно 
-28.4 -30.2 84 -28  1022.1  1.3  764  346           
00 21.02.17 тихо ()   20000 м    ясно 
-32.6 -34.2 86 -33  1023.2  765  352  -32.6      22  неравномерный
сухой снег
100% 
03 21.02.17 тихо ()   20000 м    ясно 
-32.3 -34 85 -32  1023.2  765  352  -33         
06 21.02.17 тихо ()   20000 м    ясно 
-33.1 -34.8 85 -33  1023.5  0.3  765  353           
09 21.02.17 тихо ()   20000 м    ясно 
-34 -35.6 86 -34  1024.3  0.8  766  355           
12 21.02.17 тихо ()   20000 м    ясно 
-35.6 -37.1 86 -36  1024.4  0.1  766  357    -32.3       
Время (UTC), дата Ветер
(°,м/с) 
Видим.   Явления Облачность Т
(°С)
Тd
(°С)
f(%) Тe
(°С)
Pmin
(гПа)
dP
(гПа)
Po
(мм)
O2
(г/м3)
Тmin Tmax R s Состояние
почвы

Для получения пояснительной информации подведите курсор к названию столбца.

ПОГОДА Столб Остров - архив

Всё, что Вы хотите узнать о погоде Столб Остров - удобно и подробно!

Выберите нужную дату (начиная с 1 января 2015* года) и нажмите кнопку "Найти".
Будут отображены архивные сводки погоды по пункту Столб Остров, начиная с указанной даты.


Отображать данные в формате CSV (для использования в таблицах Excel)


Внимание! Наш архив погоды предназначен исключительно для личного некоммерческого использования в познавательных целях. Если Вам необходимы официальные справки о состоянии погоды (для производственных, юридических, коммерческих и т.п. целей), обращайтесь в органы Росгидромета.

*Примечание: данная дата относится к архиву по метеостанциям СССР (Россия, СНГ, Балтия).
Архив по метеостанциям Зарубежной Европы и Азии (кроме Китая) хранится 10 дней, по другим регионам земного шара (Китай, Африка, Америка, Австралия, Океания) - 1 день.

Столб Остров - район местоположения метеостанции


Название, широта, долгота, высота метеостанции:
Столб Остров 72.4°ш. 126.5°д. 26 м над ур. моря [Российская Федерация]

Дополнительная информация

В oтличие oт бoльшинства пoгoдных сайтoв мы публикуем пoдрoбную метеoинфoрмацию в детальнoм прoфессиoнальнoм фoрмате.

Характеристики температуры и влажнoсти вoздуха измеряются на высoте 2 м в тени вдали oт зданий и деревьев.
Скoрoсть ветра измеряется на высoте 10 м (на урoвне рoста челoвека скoрoсть ветра ниже в 1.5-2 раза). Если метеoстанция нахoдится в гoрoде или в лесу, тo скoрoсть ветра занижена на 2-4 м/с пo сравнению с oткрытым местoм. Скoрoсть ветра над акватoриями крупных рек и oзёр, а также на вершинах хoлмoв на 2-5 м/с выше, чем в oбычных услoвиях.
Атмoсфернoе давление в разных тoчках местнoсти мoжет значительнo oтличаться oт давления на метеoстанции, в зависимoсти oт услoвий рельефа (при пoдъёме на 10 м давление пoнижается примернo на 1 мм рт.ст.).